MIDAS 4 DEB, 2009

Orbit data source: Space-Track

MIDAS 4 DEB, 2009 is space debris in LEO originally from a launch on Sat, 21 Oct 1961 UTC launched from the Air Force Western Test Range (AFWTR). Debris objects in space refer to the collection of defunct objects orbiting the Earth. Examples of debris include non-operational satellites, rocket bodies, and fragments generated from explosions, collisions, or faulty payload assembly.

Loading next visibility...
MIDAS 4 DEB details
Identifier
2009, 1961-028E
Orbit
LEO
Last TLE update2 days ago
Origin
Flag of USUSAF SSD (US)
ManufacturerUnknown
MissionSpacecraft
Bus & MotorUnknown
Mass~10 kg wet, ~10 kg dry
Launch date (UTC)
1961-10-21 (63 years ago)
Launch vehicleUnknown
Launch site
Air Force Western Test Range (AFWTR)
Object type
Payload
Rocket body
Debris
Shape & HBRUnknown
Radar Cross SectionMedium (>0.1 m² and <1 m²)

Expand to show TLE details & history

TLE from 2 days ago
0 MIDAS 4 DEB
1 02009U 61028E   24354.80416960  .00000017  00000-0  89697-2 0  9999
2 02009  95.8470 115.4884 0122748  71.6734 289.7429  8.68991055342718
Epoch: 2024-12-19T19:18Z
Definitive object data (Epoch: 2024-12-19T19:18:00.253Z)
Latitude0.00007°
Longitude97.10856°
Altitude3,577.589 km
Speed6.341 km/s
True Right ascension07h 41m 57s
True Declination0° 00' 00"
Sunlit
Object was in full shadow at TLE epoch
Visualization TLE readout
Latitude-66.41076°
Longitude-96.04475°
Altitude3,763.147 km
Speed6.232 km/s
Apparent Right ascension21h 03m 54s
Apparent Declination-59° 53' 52"
Sunlit
Object is in daylight
Visualization observer readout
Local Sidereal Time10:53:24
Azimuth148.598° SSE
Elevation-63.731°
Doppler factor1
Orbital elements
Apogee altitude3,736.047 km
Perigee altitude3,490.759 km
Semi-major axis9,991.54 km
Eccentricity0.0122748
Inclination95.847°
RAAN115.4884°
Arg. of periapsis71.6734°
True anomaly288.41222°
Mean anomaly289.7429°
Eccentric anomaly289.07824°
Mean motion2.17317 °/min
BSTAR0.0089697
Orbital period165.66 mins
Loading maneuver chart data...
Loading historical data...
Loading historical data...
Loading historical data...
Loading historical data...
Loading historical data...
Loading historical data...
Loading historical data...

MIDAS 4 DEB Visibility forecast

Observer location: undefined°, undefined

Span
Click to sort rows by Start time (UTC) header in descending order
Start Az.
Max El. time (UTC)
Max El. Az.
Max El.
End time (UTC)
End Az.
33 mins2024-12-21 19:03:41.905Z18.651° NNE2024-12-21 19:19:41.905Z85.996° E34.053°2024-12-21 19:36:41.905Z154.778° SSE
33 mins2024-12-21 21:47:41.905Z3.327° NNE2024-12-21 22:02:41.905Z297.812° NW40.473°2024-12-21 22:20:41.905Z219.247° SW
14 mins2024-12-22 00:33:41.905Z347.799° N2024-12-22 00:39:41.905Z326.218° NNW14.457°2024-12-22 00:47:41.905Z297.979° NW
24 mins2024-12-22 05:31:41.905Z94.658° ESE2024-12-22 05:42:41.905Z51.73° ENE24.479°2024-12-22 05:55:41.905Z1.933° NNE
34 mins2024-12-22 08:06:41.905Z167.021° S2024-12-22 08:22:41.905Z231.181° WSW44.981°2024-12-22 08:40:41.905Z350.949° N
22 mins2024-12-22 10:58:41.905Z246.272° WSW2024-12-22 11:08:41.905Z284.099° WNW19.422°2024-12-22 11:20:41.905Z329.335° NNW
|